SCP
0 0 0 0 0 0 0 0 0 0 0 0 0 0 0 0 0 0 0 0 0 0 0 0 0 0 0 0 0 0 0 0 0 0 0 0 0 0 0 0 0 0 0 0 0 0 0 0 0
0 0 0 0 0 0 0 0 0 0 0 0 0 0 0 0 0 0 0 0 0 0 0 0 0 0 0 0 0 0 0 0 0 0 0 0 0 0 0 0 0 0 0 0 0 0 0 0 0
0 0 0 0 0 0 0 0 0 0 0 0 0 0 0 0 0 0 0 0 0 0 0 0 0 0 0 0 0 0 0 0 0 0 0 0 0 0 0 0 0 0 0 0 0 0 0 0 0
0 0 0 0 0 0 0 0 0 0 0 0 0 0 0 0 0 0 0 0 0 0 0 0 0 0 0 0 0 0 0 0 0 0 0 0 0 0 0 0 0 0 0 0 0 0 0 0 0
0 0 0 0 0 0 0 0 0 0 0 0 0 0 0 0 0 0 0 0 0 0 0 0 0 0 0 0 0 0 0 0 0 0 0 0 0 0 0 0 0 0 0 0 0 0 0 0 0
0 0 0 0 0 0 -0 0 0 0 0 0 0 0 0 0 0 0 0 0 0 0 0 0 0 0 0 0 0 0 0 0 0 0 0 0 0 0 0 0 0 0 0 0 0 0 0 0 0
0 0 0 0 0 0 0 0 0 0 0 0 0 0 0 0 0 0 0 0 0 0 0 0 0 0 0 0 0 0 0 0 0 0 0 0 0 0 0 0 0 0 0 0 0 0 0 0 0
0 0 0 0 0 0 0 0 0 0 0 0 0 0 0 0 0 0 0 0 0 0 0 0 0 0 0 0 0 0 0 0 0 0 0 0 0 0 0 0 0 0 0 0 0 0 0 0 0
0 0 0 0 0 0 0 0 0 0 0 0 0 0 0 0 0 0 0 0 0 0 0 0 0 0 0 0 0 0 0 0 0 0 0 0 0 0 0 0 0 0 0 0 0 0 0 0 0
0 0 0 0 0 0 0 0 0 0 0 0 0 0 0 0 0 0 0 0 0 0 0 0 0 0 0 0 0 0 0 0 0 0 0 0 0 0 0 0 0 0 0 0 0 0 0 0 0
0 0 0 0 0 0 0 0 0 0 0 0 0 0 0 0 0 0 0 0 0 0 0 0 0 0 0 0 0 0 0 0 0 0 0 0 0 0 0 0 0 0 0 0 0 0 0 0 0
0 0 0 0 0 0 0 0 0 0 0 0 0 0 0 0 0 0 0 0 0 0 0 0 0 0 0 0 0 0 0 0 0 0 0 0 0 0 0 0 0 0 0 0 0 0 0 0 0
0 0 0 0 0 0 0 0 0 0 0 0 0 0 0 0 0 0 0 0 0 0 0 0 0 0 0 0 0 0 0 0 0 0 0 0 0 0 0 0 0 0 0 0 0 0 0 0 0
0 0 0 0 0 0 0 0 0 0 0 0 0 0 0 0 0 0 0 0 0 0 0 0 0 0 0 0 0 0 0 0 0 0 0 0 0 0 0 0 0 0 0 0 0 0 0 0 0
0 0 0 0 0 0 0 0 0 0 0 0 0 0 0 0 0 0 0 0 0 0 0 0 0 0 0 0 0 0 0 0 0 0 0 0 0 0 0 0 0 0 0 0 0 0 0 0 0
0 0 0 0 0 0 0 0 0 0 0 0 0 0 0 0 0 0 0 0 0 0 0 0 0 0 0 0 0 0 0 0 0 0 0 0 0 0 0 0 0 0 0 0 0 0 0 0 0
0 0 0 0 0 0 0 0 0 0 0 0 0 0 0 0 0 0 0 0 0 0 0 0 0 0 0 0 0 0 0 0 0 0 0 0 0 0 0 0 0 0 0 0 0 0 0 0 0
0 0 0 0 0 0 0 0 0 0 0 0 0 0 0 0 0 0 0 0 0 0 0 0 0 0 0 0 0 0 0 0 0 0 0 0 0 0 0 0 0 0 0 0 0 0 0 0 0
0 0 0 0 0 0 0 0 0 0 0 0 0 0 0 0 0 0 0 0 0 0 0 0 0 0 0 0 0 0 0 0 0 0 0 0 0 0 0 0 0 0 0 0 0 0 0 0 0
0 0 0 0 0 0 0 0 0 0 0 0 0 0 0 0 0 0 0 0 0 0 0 0 0 0 0 0 0 0 0 0 0 0 0 0 0 0 0 0 0 0 0 0 0 0 0 0 0
0 0 0 0 0 0 0 0 0 0 0 0 0 0 0 0 0 0 0 0 0 0 0 0 0 0 0 0 0 0 0 0 0 0 0 0 0 0 0 0 0 0 0 0 0 0 0 0 0
0 0 0 0 0 0 0 0 0 0 0 0 0 0 0 0 0 0 0 0 0 0 0 0 0 0 0 0 0 0 0 0 0 0 0 0 0 0 0 0 0 0 0 0 0 0 0 0 0
0 0 0 0 0 0 0 0 0 0 0 0 0 0 0 0 0 0 0 0 0 0 0 0 0 0 0 0 0 0 0 0 0 0 0 0 0 0 0 0 0 0 0 0 0 0 0 0 0
0 0 0 0 0 0 0 0 0 0 0 0 0 0 0 0 0 0 0 0 0 0 0 0 0 0 0 0 0 0 0 0 0 0 0 0 0 0 0 0 0 0 0 0 0 0 0 0 0
0 0 0 0 0 0 0 0 0 0 0 0 0 0 0 0 0 0 0 0 0 0 0 0 0 0 0 0 0 0 0 0 0 0 0 0 0 0 0 0 0 0 0 0 0 0 0 0 0
0 0 0 0 0 0 0 0 0 0 0 0 0 0 0 0 0 0 0 0 0 0 0 0 0 0 0 0 0 0 0 0 0 0 0 0 0 0 0 0 0 0 0 0 0 0 0 0 0
0 0 0 0 0 0 0 0 0 0 0 0 0 0 0 0 0 0 0 0 0 0 0 0 0 0 0 0 0 0 0 0 0 0 0 0 0 0 0 0 0 0 0 0 0 0 0 0 0
0 0 0 0 0 0 0 0 0 0 0 0 0 0 0 0 0 0 0 0 0 0 0 0 0 0 0 0 0 0 0 0 0 0 0 0 0 0 0 0 0 0 0 0 0 0 0 0 0
0 0 0 0 0 0 0 0 0 0 0 0 0 0 0 0 0 0 0 0 0 0 0 0 0 0 0 0 0 0 0 0 0 0 0 0 0 0 0 0 0 0 0 0 0 0 0 0 0
0 0 0 0 0 0 0 0 0 0 0 0 0 0 0 0 0 0 0 0 0 0 0 0 0 0 0 0 0 0 0 0 0 0 0 0 0 0 0 0 0 0 0 0 0 0 0 0 0
Wind_Speed
3 3 4 4 7 8 13 10 8 6 6 6 6 7 8 8 5 1 5 14 17 20 20 22 21 20 19 18 17 16 15 14 13 13 13 13 13 13 13 13 13 13 13 13 13 14 14 14 14
3 3 5 6 8 11 11 10 12 11 4 3 6 8 8 7 1 4 8 14 18 20 19 20 21 21 20 19 17 16 15 15 14 13 13 13 13 13 13 13 13 13 13 13 12 13 13 13 13
3 4 6 6 10 12 8 6 9 7 6 6 6 6 6 4 4 6 10 17 19 19 18 19 21 21 20 19 18 17 16 15 14 14 13 13 13 13 13 13 13 13 12 12 12 12 12 13 13
4 5 6 11 17 15 11 3 2 4 6 8 7 6 4 2 2 6 14 18 20 19 17 20 21 21 20 19 18 17 16 15 15 14 13 13 13 13 13 13 13 12 12 12 12 11 12 12 12
5 6 11 15 20 15 12 10 6 7 6 7 8 7 6 4 4 10 16 18 19 19 17 19 20 21 20 19 19 18 17 16 15 14 13 13 13 13 13 12 12 12 11 11 11 11 11 11 11
6 7 12 17 19 15 13 11 11 12 10 8 8 8 5 6 8 13 16 17 18 18 17 18 20 20 20 19 18 18 17 16 15 14 14 13 13 13 13 12 11 11 11 11 11 11 11 10 10
9 10 16 18 17 16 13 10 13 13 13 11 8 8 6 9 9 14 16 16 17 17 16 16 18 18 19 18 18 17 17 16 15 15 14 13 13 13 12 12 11 11 11 10 10 10 10 9 9
9 8 16 18 18 16 10 9 9 13 13 7 8 10 8 12 13 15 15 15 15 15 15 16 17 17 17 16 16 16 15 15 15 14 12 12 12 12 12 11 11 10 10 9 9 9 9 9 9
8 12 17 18 14 12 8 10 8 6 8 6 7 3 3 16 17 17 15 14 15 15 15 15 16 16 15 15 15 15 14 14 14 13 12 11 10 11 10 9 10 10 9 9 8 9 9 8 8
12 17 23 15 13 10 9 10 8 7 10 9 8 4 8 16 19 20 20 20 20 20 18 15 16 15 15 12 13 12 11 12 11 11 12 9 8 7 7 10 8 9 8 8 8 8 7 4 5
14 20 19 17 14 12 11 10 8 10 11 11 11 12 14 17 18 20 20 21 21 20 19 17 16 15 14 11 11 8 7 9 10 12 12 9 8 6 7 6 7 7 7 6 7 6 4 3 2
17 20 19 17 15 14 14 12 12 14 13 6 6 10 16 19 20 21 21 20 19 20 20 18 17 15 15 13 10 10 8 8 8 10 12 9 6 7 6 5 6 5 4 4 4 3 4 3 3
24 21 18 18 16 17 16 17 15 16 14 9 6 10 16 19 21 20 18 18 18 20 20 20 18 17 15 13 10 10 10 10 10 9 10 10 8 8 7 6 5 5 5 5 4 3 4 3 3
18 20 21 19 19 18 19 20 19 18 14 12 11 13 16 19 21 19 18 19 20 20 21 20 20 18 16 13 11 10 10 9 10 9 11 12 8 8 7 7 6 6 5 4 4 4 3 2 2
18 18 20 21 21 18 16 23 26 21 16 16 15 15 16 18 18 20 21 21 21 20 20 21 20 19 18 16 14 10 10 10 9 9 12 12 10 10 8 7 7 6 5 6 4 4 3 2 2
16 19 21 21 21 19 18 26 22 19 20 21 18 17 16 17 19 20 20 19 19 19 20 20 17 19 19 16 14 10 10 11 9 9 10 13 12 11 9 7 7 7 6 5 5 4 4 3 2
15 20 24 22 19 18 22 23 18 17 18 20 20 19 18 17 19 19 20 20 19 20 20 20 20 20 19 17 13 12 10 11 10 10 10 12 13 13 10 8 7 8 6 6 5 4 4 3 3
18 22 24 25 17 20 23 24 18 14 18 21 21 20 19 19 20 20 20 20 19 19 19 20 20 19 18 14 12 10 11 11 10 10 11 13 12 14 11 8 9 9 7 6 6 6 4 3 3
20 21 23 21 16 17 24 25 22 19 17 19 20 20 20 20 19 18 18 19 19 19 20 21 21 20 17 14 13 13 13 12 11 11 13 14 14 14 12 9 10 10 8 8 8 6 6 4 4
23 23 23 17 15 16 20 24 22 22 22 20 21 21 21 20 19 17 17 18 20 21 21 22 22 21 20 16 15 13 13 11 10 9 12 15 15 15 12 13 10 10 9 10 9 8 5 4 5
24 24 23 17 11 14 16 22 23 22 22 21 21 22 22 21 21 19 18 19 20 21 22 20 23 23 23 20 14 11 10 9 10 13 12 15 16 16 14 15 12 12 11 10 11 10 9 6 5
22 22 21 18 14 12 15 16 21 21 22 23 23 23 23 22 21 20 18 19 20 21 21 22 22 23 23 21 18 19 15 15 17 13 12 14 16 16 16 15 14 13 11 11 11 11 8 8 6
18 14 17 17 17 15 14 15 16 17 22 23 24 24 23 22 21 21 19 19 19 19 19 19 21 22 22 22 22 21 18 16 13 13 15 15 14 16 16 15 14 13 11 12 11 11 10 8 7
14 11 12 13 12 18 21 18 16 17 22 21 22 22 22 22 21 20 18 16 16 16 16 17 19 21 21 23 23 23 22 19 16 17 15 14 11 13 16 15 14 14 12 12 12 11 12 10 9
16 11 8 11 13 15 19 19 18 16 18 20 20 20 20 20 19 19 18 17 16 16 17 17 19 20 21 22 23 23 23 21 20 18 16 15 12 12 16 15 15 13 13 12 11 11 11 12 11
18 18 12 9 12 13 15 19 17 17 17 18 18 18 18 18 18 17 17 16 16 16 17 18 19 19 20 21 22 21 21 16 14 17 14 15 12 13 15 16 15 15 14 12 11 9 10 9 10
14 17 15 10 9 10 10 14 16 12 16 18 18 18 18 17 17 16 15 15 15 15 16 18 18 18 19 20 20 19 20 18 16 16 15 13 12 12 15 16 15 14 14 13 12 9 10 10 10
12 10 9 10 10 12 11 16 14 15 19 19 20 19 18 15 14 14 13 13 13 13 14 15 16 17 17 18 17 14 18 18 16 15 15 14 14 13 14 15 15 14 13 13 12 10 10 10 9
12 12 8 8 9 10 11 11 10 13 15 17 19 18 16 15 14 13 11 11 12 12 12 13 14 14 15 16 16 16 16 16 15 14 15 14 13 14 14 14 14 14 13 13 12 11 11 11 10
10 11 10 9 9 12 11 8 3 8 9 10 12 13 12 10 10 10 10 10 11 12 12 12 13 13 14 14 15 15 15 15 15 14 14 14 13 13 13 13 13 13 13 13 13 12 11 11 11
Wind_Direction
202 223 218 214 221 230 237 228 224 208 209 214 206 208 216 207 205 97 95 157 152 154 157 159 158 156 154 151 147 143 140 136 133 130 127 123 117 112 109 105 101 97 95 94 92 88 86 85 83
222 207 213 220 234 231 231 227 223 224 209 172 200 217 219 217 238 100 142 156 155 155 158 159 157 157 155 152 148 146 143 140 137 134 132 128 122 118 114 110 105 101 99 98 95 91 89 88 85
201 225 224 222 230 234 234 215 228 225 219 210 203 215 225 196 156 143 146 156 156 156 159 154 158 157 155 153 150 149 147 143 141 139 136 132 128 123 119 113 109 106 104 102 99 96 94 92 89
209 208 225 236 235 234 245 221 182 206 201 215 218 203 190 77 105 130 144 158 157 158 159 154 161 158 156 154 152 151 150 147 146 143 140 136 130 125 121 116 113 110 108 106 103 101 99 95 93
224 225 226 233 241 241 241 251 246 243 214 199 210 212 175 119 113 138 153 160 159 159 159 157 163 160 158 156 155 153 152 150 149 147 144 138 132 127 124 121 118 115 113 110 106 103 100 98 95
212 224 232 236 238 239 240 240 242 245 237 223 219 217 171 128 147 150 156 161 160 159 160 160 164 161 160 159 157 155 154 152 151 149 146 141 136 131 128 126 123 120 117 114 111 107 104 101 98
225 225 240 245 248 245 240 231 235 240 236 225 213 207 164 153 148 152 157 160 159 161 163 163 166 165 162 160 159 158 158 156 154 151 147 142 140 139 136 132 129 124 120 117 114 110 107 103 100
234 238 241 240 244 247 239 224 235 240 238 229 214 214 186 152 147 151 154 159 162 166 169 169 170 168 167 164 161 160 160 158 155 150 143 141 143 143 139 139 132 128 125 123 118 113 110 103 97
220 233 235 231 236 243 226 223 221 233 229 206 211 246 67 132 148 151 155 163 169 174 176 177 173 171 170 167 161 162 161 159 155 150 141 150 157 150 150 137 136 133 130 125 118 114 110 113 108
212 232 235 236 238 245 227 227 222 211 215 210 196 157 137 150 160 164 169 173 177 180 181 181 179 175 172 167 166 170 168 165 170 164 162 169 160 152 147 130 138 134 130 127 117 118 131 158 130
217 235 241 240 240 247 245 236 229 231 228 221 210 179 163 170 177 180 181 182 182 181 180 182 181 179 175 170 172 172 171 170 176 172 171 168 160 156 161 156 153 152 156 150 139 161 150 141 109
231 238 241 243 237 238 244 245 237 235 240 240 228 175 172 182 189 191 188 185 182 183 184 183 182 181 180 177 176 175 173 174 176 177 176 172 168 171 169 170 165 165 166 159 166 158 142 143 141
232 238 237 241 242 240 246 245 247 246 246 252 232 185 191 194 198 199 194 187 185 186 186 186 185 184 183 182 180 181 179 178 178 178 182 179 174 177 174 174 173 176 168 172 174 173 157 158 145
233 238 240 239 238 238 242 248 244 245 243 240 227 212 206 205 203 198 195 192 192 191 189 186 188 187 185 186 184 185 183 181 181 181 185 184 182 180 181 178 179 179 178 177 182 176 169 162 156
237 239 240 237 236 236 242 248 240 240 238 237 231 224 217 214 208 204 200 198 195 193 190 188 188 188 188 190 189 186 186 184 186 185 187 188 188 185 184 184 183 182 180 180 184 171 176 163 161
223 230 237 232 227 226 226 246 238 231 231 236 235 228 221 219 215 211 207 204 199 194 192 190 188 191 191 191 191 188 188 188 190 189 189 192 192 190 188 187 188 183 180 185 184 183 183 180 182
215 223 229 230 220 218 221 244 243 229 227 232 232 230 225 221 218 215 211 206 201 197 193 191 191 193 193 192 191 191 190 192 192 191 191 193 194 193 192 192 189 183 185 190 184 193 191 184 178
214 222 229 230 217 217 227 238 238 229 226 230 232 230 227 225 220 214 210 207 202 198 194 193 193 194 192 190 192 191 194 196 196 195 195 194 195 195 195 194 193 187 189 190 190 186 186 191 173
236 233 233 235 225 221 232 239 238 231 228 232 232 231 228 227 226 218 209 205 201 198 196 194 193 193 189 189 191 193 196 196 197 198 198 197 197 196 196 193 194 195 196 194 192 185 181 184 179
236 239 238 239 231 228 238 242 241 237 233 233 233 232 230 229 226 218 209 202 200 198 197 196 196 193 192 194 194 197 197 197 196 195 201 201 199 197 197 197 195 195 198 196 193 190 188 180 193
231 234 234 232 225 233 246 248 240 237 235 234 236 235 234 230 227 219 209 204 201 200 198 197 197 195 196 195 192 190 191 191 193 198 201 203 201 199 197 200 198 197 199 199 196 194 194 190 191
232 230 235 234 228 226 222 247 236 231 229 229 231 230 231 229 228 225 214 207 203 202 199 199 198 197 196 193 193 189 192 195 200 198 198 198 201 201 200 201 201 199 201 202 199 198 199 193 188
230 229 232 235 235 242 224 240 245 225 228 227 227 226 226 226 225 224 218 211 206 202 198 199 199 199 197 195 196 196 200 204 199 196 197 196 197 201 201 201 201 202 202 203 198 195 198 200 199
226 224 234 234 233 237 227 229 247 223 227 228 226 225 224 224 222 223 221 213 206 199 196 197 198 199 197 197 198 200 203 202 197 195 194 194 194 197 200 201 202 202 201 201 198 196 199 202 203
208 197 201 205 212 229 221 225 240 231 225 229 227 224 222 220 220 219 217 211 204 196 195 195 197 198 196 197 200 202 204 203 201 197 197 193 192 195 199 198 201 201 201 199 196 196 200 202 203
207 203 209 211 214 221 212 226 237 230 225 228 233 231 226 222 218 216 213 210 205 198 194 193 196 197 195 197 200 202 203 203 203 201 197 197 197 198 197 198 200 201 198 195 194 196 198 201 205
206 212 224 246 251 233 215 232 238 229 224 224 228 229 226 222 215 212 208 205 203 198 195 193 193 194 194 196 197 200 201 201 201 199 200 199 199 195 195 196 198 199 196 193 189 196 196 197 202
216 205 202 211 216 228 225 229 228 205 211 215 220 222 222 216 212 209 204 201 198 194 190 190 191 191 190 192 194 196 198 199 198 196 197 197 197 192 192 193 196 195 194 192 191 195 195 194 196
200 201 205 210 226 228 231 232 223 219 210 214 217 219 220 213 206 202 198 193 188 185 184 183 186 186 187 189 190 192 194 195 195 195 197 196 194 190 190 191 192 193 192 191 191 194 189 194 193
216 203 202 205 204 225 240 242 171 222 222 222 223 219 217 210 200 193 185 179 178 179 180 180 181 183 184 184 186 188 188 188 190 193 194 192 191 188 189 188 189 190 190 190 191 192 191 194 194